Lapse_Rate
5.4 5.8 7.3 6.1 6.1 4.4 4.9 4.9 4.6 4.4 3.6 3.0 2.8 2.7 3.0 3.1 3.5 4.8 6.9 6.1 5.9 5.7 4.8 3.5 3.7 4.1 3.9 3.9 5.1 4.9 4.1 4.9 5.9 4.7 4.4 5.0 6.0 5.9 6.3 6.3 6.2 6.8 6.9
5.1 6.4 6.4 6.5 5.3 4.7 4.7 5.0 4.9 4.6 4.2 3.3 2.9 3.0 2.7 2.5 3.3 4.3 5.6 6.1 6.1 5.8 5.2 3.9 3.6 3.8 3.5 3.9 4.3 5.2 4.2 4.5 5.6 6.3 4.0 4.7 5.2 6.0 6.5 6.2 7.1 6.9 6.9
5.2 5.5 6.3 6.2 5.4 4.9 4.3 5.0 4.8 4.6 4.3 4.1 3.2 3.0 3.0 3.1 3.8 4.6 4.8 5.6 6.4 5.7 5.2 4.6 3.6 3.4 3.6 3.5 4.3 5.2 6.0 4.9 4.7 6.0 6.8 5.7 5.5 4.9 5.5 5.8 6.3 7.1 6.5
5.5 5.3 6.6 6.5 5.9 5.5 4.3 4.5 4.5 4.4 4.8 4.0 3.1 2.8 2.7 2.9 3.7 4.5 4.8 4.9 6.2 5.3 5.3 4.9 4.2 3.6 3.4 3.5 3.8 5.6 5.1 6.2 5.1 5.0 7.9 7.3 7.2 5.8 4.6 5.3 6.0 6.5 7.3
5.3 5.7 6.0 6.2 6.7 4.4 4.0 4.0 4.0 4.4 4.4 3.9 3.4 2.4 2.7 2.9 3.2 3.6 4.6 5.3 5.5 6.0 5.1 4.7 4.1 3.5 3.3 3.6 4.0 3.8 4.1 5.2 5.9 5.5 5.7 6.8 5.6 5.4 5.8 5.1 4.1 4.8 5.0
5.7 5.9 5.7 5.4 5.0 3.6 3.7 4.1 4.3 4.3 4.2 3.5 3.1 2.9 2.8 3.0 3.0 3.5 4.1 4.6 5.6 5.8 5.1 4.8 3.9 3.6 3.5 3.7 3.6 3.9 4.1 4.0 4.9 5.8 6.0 5.9 7.6 5.0 5.9 5.3 4.9 5.0 3.6
5.1 5.2 5.2 4.9 5.9 5.0 4.4 4.5 4.7 4.2 4.1 3.5 3.1 3.2 3.0 3.0 3.2 4.0 4.4 4.9 4.8 5.7 5.7 4.3 4.1 3.6 4.1 4.3 4.0 3.8 3.7 3.7 4.0 4.6 5.4 6.5 6.6 6.8 7.0 7.5 5.5 5.7 4.8
5.1 5.1 5.6 5.1 5.2 5.1 4.6 4.6 4.3 4.0 3.8 3.4 3.1 2.8 3.2 2.6 3.0 3.7 4.0 4.1 4.7 5.0 5.8 5.1 4.4 4.3 4.5 4.1 3.9 3.5 3.4 3.7 3.6 4.0 4.3 5.0 5.8 6.6 6.6 6.9 6.2 5.5 6.1
5.1 4.9 5.6 5.0 5.0 4.5 4.6 4.4 4.2 3.9 4.1 3.7 2.9 3.1 3.0 3.1 2.9 3.2 3.5 3.9 4.7 5.7 5.3 4.7 4.2 4.0 4.1 4.3 4.1 3.5 3.6 3.8 4.0 4.1 4.3 4.6 5.0 5.4 5.4 6.2 6.0 6.7 5.8
4.7 4.8 5.1 5.2 5.0 5.0 4.6 4.4 4.3 4.3 4.3 4.1 3.6 3.9 3.3 3.3 3.1 3.2 3.8 4.2 4.2 4.7 4.7 4.5 4.2 4.1 4.1 4.2 4.0 3.5 4.0 4.2 4.0 4.7 4.5 4.6 5.0 5.1 5.2 5.8 5.8 6.1 6.3
4.3 4.7 5.1 5.4 5.3 5.1 4.7 4.5 4.3 4.3 4.1 4.3 3.8 3.2 3.2 3.3 3.1 3.2 3.5 3.6 3.7 3.9 4.2 4.4 4.4 4.4 4.4 4.5 4.4 4.2 4.3 4.4 4.3 4.6 4.8 4.9 5.2 4.7 4.5 4.9 5.4 5.6 5.7
4.0 4.2 4.8 5.1 5.3 5.1 5.0 4.7 4.1 3.9 3.9 4.0 3.6 3.3 3.2 3.4 3.0 3.0 3.1 3.2 3.0 3.3 3.8 4.0 4.2 4.3 4.3 4.3 4.3 4.2 4.5 4.5 4.3 4.3 4.4 4.3 5.6 4.5 4.3 4.0 4.3 4.7 5.0
5.0 4.5 4.4 4.5 4.8 4.8 4.9 5.0 4.2 3.5 3.6 3.5 3.2 2.9 2.9 3.1 3.0 3.1 3.2 3.3 3.1 3.1 3.2 3.7 3.7 4.0 4.1 4.1 4.0 4.0 3.9 3.9 3.8 3.8 3.7 3.8 4.0 3.5 3.6 3.8 3.5 3.7 5.3
5.2 4.6 4.5 4.5 4.6 4.5 4.6 5.0 4.5 3.6 3.2 3.2 2.9 2.6 2.6 3.0 2.9 3.0 3.1 3.1 3.0 2.7 2.8 3.1 3.3 3.5 3.7 3.9 3.8 3.9 3.4 3.2 3.6 3.5 3.4 3.3 3.5 3.3 3.4 3.8 3.9 4.7 3.9
5.2 4.8 4.5 3.8 3.9 4.2 4.6 4.7 4.0 3.4 3.0 2.8 2.5 2.5 2.7 2.9 2.9 3.1 3.1 3.0 2.8 3.0 2.9 3.1 2.9 3.0 3.4 4.2 2.7 2.4 2.1 2.0 2.2 2.5 3.1 3.4 3.2 3.8 4.1 4.6 3.4 4.0 3.8
5.3 5.4 5.3 5.1 5.0 4.6 4.2 4.7 4.1 3.1 2.6 2.3 2.1 2.7 3.0 3.0 2.8 2.9 3.0 2.8 2.7 2.9 3.1 2.9 2.9 2.7 3.8 4.9 4.1 3.2 1.3 1.9 2.3 2.4 2.9 3.3 4.0 4.1 5.3 5.5 5.4 4.4 3.1
5.3 5.4 5.3 4.8 4.5 4.6 5.1 4.3 3.8 3.4 2.8 2.4 2.7 3.0 3.2 3.1 2.8 3.0 3.0 2.8 2.7 2.9 2.8 2.7 2.9 2.7 2.5 4.8 4.9 4.3 2.3 1.8 1.8 2.4 2.9 3.5 4.8 4.5 4.0 4.8 5.3 5.1 5.3
5.7 5.6 5.1 5.3 5.3 5.4 5.2 4.9 4.7 4.3 3.6 3.2 3.4 3.5 3.5 3.3 3.2 3.2 3.0 2.8 2.9 2.8 2.8 2.6 2.7 2.5 2.9 4.7 5.0 4.7 2.4 1.8 2.0 2.6 3.0 3.1 2.9 3.2 4.1 3.7 3.1 3.2 3.3
4.9 5.0 5.3 5.6 5.4 4.9 4.6 4.7 4.9 5.0 4.9 4.5 4.0 4.1 3.9 3.5 3.4 3.3 3.1 3.0 3.5 3.2 3.2 3.5 3.0 2.7 2.4 4.1 4.9 4.8 2.7 2.5 2.3 3.1 3.3 3.2 3.0 3.9 5.2 3.6 2.5 2.1 2.3
5.6 5.8 6.1 5.7 5.1 4.5 4.8 5.4 5.3 5.1 5.2 5.5 5.3 5.2 4.8 4.1 3.9 3.7 3.7 3.9 4.0 4.0 3.7 3.2 2.7 3.2 2.6 3.7 4.6 4.7 2.9 2.3 3.0 2.7 3.3 4.9 4.8 5.2 5.8 3.5 2.5 2.4 2.4
6.9 5.8 5.6 4.6 4.5 5.1 5.2 4.7 5.0 5.0 5.6 6.0 5.9 5.4 4.9 4.3 4.0 3.9 4.0 4.0 3.8 4.0 3.3 3.1 2.7 2.5 2.6 2.8 5.1 5.8 4.0 3.6 3.6 3.6 3.8 3.9 6.1 6.7 6.8 6.5 3.4 3.6 3.9
6.6 6.0 4.4 4.2 4.8 5.2 5.0 4.5 4.2 4.9 5.4 5.3 4.8 4.3 4.0 4.4 5.3 4.1 3.6 3.6 3.5 3.2 3.1 3.1 2.8 3.5 3.8 5.2 5.8 6.7 6.9 5.7 4.8 4.3 4.1 3.6 5.9 6.7 7.1 7.1 6.4 6.4 6.4
5.8 5.9 5.4 5.7 6.0 5.4 5.3 5.0 5.0 5.6 5.5 5.1 4.7 4.8 5.1 5.4 5.3 4.5 4.1 4.8 4.3 4.3 4.9 4.9 4.4 4.4 4.6 4.6 6.3 7.2 7.7 7.7 7.0 5.6 5.3 6.5 7.2 7.7 7.8 7.5 7.7 7.6 6.0
6.5 6.6 6.6 6.5 6.7 6.7 6.4 5.9 6.2 6.6 6.5 5.9 5.6 5.6 5.7 5.8 5.7 5.8 5.7 5.1 5.2 4.9 5.0 4.5 4.4 5.0 4.3 4.4 4.5 5.2 4.7 6.5 6.5 6.3 4.9 6.9 7.5 7.8 7.9 7.9 7.6 7.0 6.1
5.5 6.2 6.8 8.5 8.2 7.4 7.3 7.3 7.3 6.8 6.0 5.5 5.2 5.3 5.7 5.3 5.5 5.7 5.6 5.5 5.8 5.4 5.1 4.6 4.1 4.2 4.8 5.0 6.1 6.1 5.8 5.0 5.8 6.9 5.2 4.5 4.8 5.6 6.4 7.4 6.5 6.2 5.4
6.8 7.4 8.3 8.4 7.4 7.1 7.0 6.9 6.7 6.6 5.6 5.6 5.6 5.3 5.5 5.3 5.4 4.8 5.7 6.7 7.4 7.5 7.6 7.6 7.3 6.7 7.1 7.1 7.0 6.6 7.0 7.3 7.8 7.8 7.1 5.7 5.1 5.7 6.1 8.0 7.4 6.1 6.4
Wind_Speed
8 8 5 6 3 3 2 2 3 4 3 3 3 3 3 3 4 5 5 1 5 4 4 5 4 5 3 4 5 3 5 5 5 4 5 3 3 3 2 2 3 2 3
8 7 7 6 4 4 2 1 2 3 2 1 2 2 3 4 3 5 7 5 5 4 4 4 4 4 3 5 5 5 3 3 6 3 2 3 2 2 1 2 2 3 1
10 9 7 6 4 5 3 0 2 2 3 2 2 3 3 3 2 3 3 4 6 4 4 5 3 4 3 3 3 3 4 3 4 6 2 3 3 4 1 2 2 1 1
7 7 6 6 5 3 3 2 2 3 3 3 3 4 3 3 3 3 2 3 5 6 4 3 4 3 3 4 2 4 3 2 2 4 5 3 2 3 4 3 2 1 2
6 7 7 6 3 4 1 1 3 4 4 2 3 3 4 3 4 4 6 4 4 6 5 3 4 3 2 3 3 4 4 3 1 1 1 3 4 2 2 3 4 3 6
7 6 6 6 4 5 4 2 3 4 3 3 3 4 5 6 5 5 4 4 3 2 4 4 4 4 3 3 1 2 4 3 3 1 3 2 2 2 2 2 3 4 4
8 8 8 6 5 5 4 3 1 3 2 3 4 4 5 5 6 5 4 5 3 2 3 4 3 3 2 2 2 2 3 3 2 3 2 3 3 3 3 3 3 3 3
7 7 7 6 6 6 4 2 1 3 3 4 4 4 4 3 4 4 4 4 3 3 1 0 3 4 4 3 3 2 3 4 3 5 3 3 3 1 1 2 1 3 2
8 9 7 7 6 5 4 3 1 3 2 3 4 4 4 4 4 6 5 3 4 3 2 2 4 4 4 4 4 3 4 4 3 4 4 3 3 2 3 1 2 2 2
9 8 7 7 6 5 4 3 3 3 2 2 2 3 4 4 5 5 5 5 5 4 4 4 4 5 5 5 4 4 5 5 3 3 4 3 2 3 3 2 2 2 4
8 7 7 7 7 5 5 5 4 3 3 2 2 4 4 4 5 4 4 5 5 5 5 5 5 5 5 5 5 5 6 6 5 4 5 6 4 3 3 2 2 3 2
8 8 8 7 6 6 7 7 6 5 5 3 2 3 4 3 4 4 5 5 5 6 5 5 4 5 5 5 5 6 5 5 5 6 5 6 3 4 4 3 4 3 4
7 7 7 8 7 7 7 7 7 7 6 4 3 3 4 3 4 4 4 5 5 5 6 5 5 5 5 5 5 5 6 6 6 6 6 6 5 5 3 4 4 4 4
8 7 6 6 6 6 7 6 5 6 5 4 3 4 5 4 4 4 4 4 4 5 5 5 5 5 5 5 5 5 5 6 6 6 6 6 6 6 6 5 5 5 4
8 8 7 7 7 7 6 6 6 6 5 5 5 6 5 4 4 4 4 4 4 4 4 4 5 5 4 3 1 4 5 6 6 6 6 6 7 9 8 4 4 4 3
8 8 8 7 7 7 6 5 5 6 6 7 7 6 5 5 5 5 5 5 5 5 4 5 5 5 4 4 4 5 5 6 6 6 6 6 8 8 11 13 13 9 4
7 7 7 7 6 4 4 5 6 6 7 7 6 6 6 6 6 5 5 5 6 4 5 6 5 6 6 9 7 7 4 5 6 7 6 5 4 7 5 9 12 13 16
6 6 5 4 3 2 3 5 6 6 6 6 6 6 6 6 5 5 5 6 4 5 5 6 6 6 6 10 10 9 6 6 7 7 7 6 6 6 6 5 6 5 6
6 5 3 2 1 2 4 5 5 5 6 7 7 6 6 6 5 6 6 6 5 5 5 5 6 6 8 11 12 8 5 6 8 6 7 7 7 9 9 5 6 6 8
3 1 1 1 2 4 5 6 6 5 6 6 7 6 5 5 5 6 6 5 5 6 5 6 7 11 9 14 15 11 4 6 6 6 7 12 10 13 12 6 5 7 9
2 3 1 3 5 3 3 4 4 4 4 1 1 3 4 5 6 6 5 6 6 6 6 7 7 8 9 10 16 15 5 6 6 5 6 5 12 13 13 13 6 9 7
3 4 3 4 3 2 1 4 6 5 3 3 5 6 7 5 6 7 7 7 6 7 7 7 6 6 7 10 10 12 13 11 7 7 6 7 15 16 16 13 15 19 16
2 1 3 4 5 5 4 4 5 5 4 5 6 6 6 6 6 6 7 6 6 5 6 5 5 6 4 4 11 14 14 14 10 7 11 17 17 18 15 20 21 21 9
3 2 3 5 4 3 5 5 6 6 5 6 7 6 6 6 6 4 4 4 4 4 5 5 7 7 4 4 4 5 5 9 5 6 5 8 14 15 13 12 12 9 8
10 10 9 8 7 6 5 5 4 4 5 6 6 6 5 6 6 6 5 5 6 6 6 6 4 5 7 7 10 9 5 5 8 11 5 6 7 8 8 8 8 7 7
11 10 12 10 7 5 5 6 6 5 6 6 5 5 5 5 5 5 7 11 14 17 17 19 15 10 15 19 20 21 20 20 20 9 9 9 8 9 9 9 9 7 10
Wind_Direction
141 129 136 135 151 123 58 47 33 10 12 352 335 336 325 326 335 349 343 305 256 267 303 301 313 334 340 330 326 329 343 328 331 339 333 263 191 240 213 240 117 91 56
129 149 174 157 152 146 131 71 54 5 347 9 307 275 275 271 257 282 278 269 264 286 283 313 316 328 339 339 338 345 338 323 354 1 277 310 335 319 215 74 84 96 50
155 156 170 179 170 155 151 227 336 333 324 360 321 315 321 326 316 282 252 251 217 248 258 286 309 321 336 332 326 333 343 338 345 357 333 348 356 332 320 180 206 135 332
126 141 153 164 150 138 142 225 312 321 308 356 335 324 302 304 295 288 277 300 264 226 230 275 302 311 312 327 322 7 328 333 32 338 3 338 329 337 342 346 279 303 327
169 169 159 132 139 134 133 279 290 301 296 357 330 330 323 305 294 312 314 289 260 213 194 213 279 284 291 309 330 323 335 324 148 149 333 321 315 290 209 278 330 349 351
161 163 158 162 196 151 180 210 259 284 2 357 342 348 321 307 321 314 310 303 302 205 185 193 231 257 264 262 289 313 322 341 339 241 209 217 307 344 352 332 332 315 308
179 188 183 197 171 166 166 225 309 327 344 358 6 331 305 313 309 315 305 325 319 313 243 182 235 255 259 292 284 276 289 281 277 306 286 234 237 265 279 293 293 295 309
202 199 191 170 186 185 186 169 333 306 356 17 335 322 330 325 315 308 320 307 298 302 19 316 271 275 272 261 266 257 257 258 253 256 269 274 278 286 256 228 201 327 298
205 192 196 182 195 192 183 169 277 321 1 347 341 331 332 337 317 314 310 293 297 288 269 267 253 263 267 258 256 255 260 265 259 260 261 267 274 285 282 205 163 219 308
205 192 191 188 196 194 182 167 201 253 280 299 317 314 317 340 329 320 316 315 312 322 307 280 274 277 272 263 251 251 262 260 260 250 255 256 259 268 278 239 242 234 223
197 192 203 203 196 186 177 206 194 219 265 278 302 315 325 337 327 324 330 334 330 312 309 304 297 292 289 288 282 266 259 262 263 269 265 268 260 261 263 264 253 250 233
199 189 190 199 211 206 203 198 204 198 222 220 261 296 302 311 327 325 335 336 325 327 313 298 298 297 290 283 282 283 290 282 276 269 271 271 264 262 249 247 251 243 249
247 214 198 205 216 217 211 199 200 204 208 206 225 276 289 306 314 323 330 327 322 318 316 322 313 302 304 303 292 282 283 284 277 271 264 259 257 265 258 255 251 246 247
234 225 228 221 221 218 206 194 209 199 204 214 240 262 271 270 283 289 293 298 303 311 320 323 319 311 299 294 290 288 291 287 279 278 269 255 242 241 249 253 253 256 257
211 213 209 216 216 211 199 197 210 200 194 218 236 249 256 255 268 276 286 293 299 292 291 302 300 300 298 279 331 314 296 288 284 279 271 263 248 235 232 244 254 269 263
215 211 206 202 208 200 194 208 223 215 192 210 229 239 243 246 253 268 278 291 294 300 306 299 293 291 283 272 273 283 278 287 288 284 279 275 274 268 253 247 246 237 237
200 199 203 199 192 190 195 232 237 214 204 210 234 236 231 234 241 254 264 272 277 278 288 293 294 288 283 285 270 282 276 276 271 272 272 276 266 278 269 259 250 249 247
189 189 188 192 210 215 242 245 239 211 198 214 229 232 232 237 243 251 261 272 271 268 269 268 267 271 276 276 272 255 253 266 261 259 261 256 266 264 272 273 274 271 266
190 190 158 132 58 312 289 282 260 222 208 216 226 229 226 228 237 250 258 257 252 260 255 255 266 259 272 272 279 277 260 270 271 267 262 252 252 249 254 261 258 263 267
115 156 95 5 288 276 275 263 249 242 241 225 218 230 222 213 238 254 260 257 244 248 254 259 250 254 256 266 264 261 228 257 274 274 264 265 254 252 245 239 245 263 265
116 68 24 253 260 302 319 293 289 265 261 206 252 266 243 230 234 244 247 251 254 250 249 245 249 246 242 254 258 257 227 237 260 263 272 262 268 267 246 239 219 244 266
191 205 222 249 251 200 213 270 268 257 219 236 241 237 232 224 223 227 239 243 244 248 251 254 260 253 251 250 256 263 255 238 242 250 256 259 271 272 266 259 254 259 266
282 263 234 248 243 176 172 253 265 261 239 244 248 254 256 247 242 238 241 245 236 241 258 254 258 263 258 261 267 269 269 269 260 248 251 260 264 271 277 274 273 274 267
351 12 327 281 280 231 207 221 252 262 262 268 273 271 266 268 265 264 254 255 254 250 252 256 264 267 256 252 259 266 270 277 293 303 295 272 268 264 265 273 273 267 256
358 356 340 326 323 333 321 317 307 300 286 274 273 275 270 263 265 252 242 245 244 218 238 241 231 249 271 266 267 272 276 272 271 283 275 275 272 271 265 264 260 256 247
346 341 327 312 305 311 310 306 299 288 277 276 269 264 268 265 263 263 272 253 259 261 252 260 258 263 260 273 275 278 281 283 283 278 269 269 262 258 263 270 271 256 260